This is the latest recevied weather packets stored in our database for station/object K7AEL. If no packets are shown the sender has not sent any weather packets the latest 10 day(s).
| Time | Temp. | Humidity | Pressure | Rain* | Wind** | Luminosity | Snow |
|---|---|---|---|---|---|---|---|
| 1778027121 | 23.89° C | 29% | 1011.2 hPa | 0 mm | - | 162 W/m² | - |
| 1778026816 | 24.44° C | 29% | 1011.2 hPa | 0 mm | - | 170 W/m² | - |
| 1778026513 | 24.44° C | 28% | 1011.3 hPa | 0 mm | - | 181 W/m² | - |
| 1778026210 | 24.44° C | 27% | 1011 hPa | 0 mm | - | 200 W/m² | - |
| 1778025908 | 25° C | 27% | 1011 hPa | 0 mm | - | 211 W/m² | - |
| 1778025605 | 25° C | 28% | 1010.9 hPa | 0 mm | - | 225 W/m² | - |
| 1778025303 | 25° C | 28% | 1010.9 hPa | 0 mm | - | 243 W/m² | - |
| 1778024999 | 24.44° C | 27% | 1011 hPa | 0 mm | - | 265 W/m² | - |
| 1778024697 | 25° C | 27% | 1011 hPa | 0 mm | - | 277 W/m² | - |
| 1778024393 | 25° C | 27% | 1010.9 hPa | 0 mm | - | 291 W/m² | - |
| 1778024091 | 25.56° C | 27% | 1010.8 hPa | 0 mm | - | 309 W/m² | - |
| 1778023788 | 25.56° C | 26% | 1010.7 hPa | 0 mm | - | 326 W/m² | - |
| 1778023486 | 26.11° C | 26% | 1010.9 hPa | 0 mm | - | 341 W/m² | - |
| 1778023183 | 25.56° C | 25% | 1010.9 hPa | 0 mm | - | 369 W/m² | - |
| 1778022880 | 25.56° C | 27% | 1010.6 hPa | 0 mm | - | 386 W/m² | - |
| 1778022578 | 25.56° C | 27% | 1010.9 hPa | 0 mm | - | 397 W/m² | - |
| 1778022276 | 25.56° C | 28% | 1010.9 hPa | 0 mm | - | 426 W/m² | - |
| 1778021972 | 25.56° C | 29% | 1010.8 hPa | 0 mm | - | 450 W/m² | - |
| 1778021669 | 25° C | 29% | 1010.8 hPa | 0 mm | - | 492 W/m² | - |
| 1778021365 | 25.56° C | 29% | 1010.8 hPa | 0 mm | - | 501 W/m² | - |
| 1778021062 | 26.11° C | 28% | 1010.9 hPa | 0 mm | - | 510 W/m² | - |
| 1778020759 | 25.56° C | 29% | 1011 hPa | 0 mm | - | 519 W/m² | - |
| 1778020456 | 24.44° C | 29% | 1011 hPa | 0 mm | - | 525 W/m² | - |
| 1778020152 | 24.44° C | 30% | 1011.2 hPa | 0 mm | - | 132 W/m² | - |
| 1778019849 | 24.44° C | 29% | 1011.1 hPa | 0 mm | - | 177 W/m² | - |
* Rain latest hour (hover to see other rain measurements)
** Current wind speed in m/s (hover to see current wind gust speed)